Weather History for Kirksville, MO

Change the Weather History Date:

Monday, April 8, 2013

  Actual Average Record
Temperature  
Mean Temperature 62 °F 49 °F  
Max Temperature 71 °F 61 °F 84 °F (1931)
Min Temperature 52 °F 38 °F 19 °F (2007)
Degree Days  
Heating Degree Days 3 16  
Month to date heating degree days 142 135  
Since 1 July heating degree days 5504 5422  
Cooling Degree Days 0 0  
Month to date cooling degree days 0 0  
Year to date cooling degree days 0 0  
Growing Degree Days 11 (Base 50)    
Moisture  
Dew Point 56 °F    
Average Humidity 83    
Maximum Humidity 96    
Minimum Humidity 70    
Precipitation  
Precipitation 0.27 in 0.09 in 1.41 in (2008)
Month to date precipitation 0.64 0.61  
Year to date precipitation 9.43 5.96  
Sea Level Pressure  
Sea Level Pressure 29.72 in    
Wind  
Wind Speed 7 mph (South)    
Max Wind Speed 22 mph    
Max Gust Speed 29 mph    
Visibility 9 miles    
Events Rain , Thunderstorm    
T = Trace of Precipitation, MM = Missing Value Source: NWS Daily Summary

Daily Weather History Graph

Daily Weather History Graph

Search for Another Location

Airport:

Trip Planner

Search our weather history database for the weather conditions in past years. The results will help you decide how hot, cold, wet, or windy it might be!

Date:

Astronomy

Apr. 08, 2013 Rise Set
Actual Time 6:42 AM CDT 7:41 PM CDT
Civil Twilight 6:14 AM CDT 8:09 PM CDT
Nautical Twilight 5:41 AM CDT 8:42 PM CDT
Astronomical Twilight 5:07 AM CDT 9:17 PM CDT
Moon 5:33 AM CDT (4/8) 6:16 PM CDT (4/8)
Length of Visible Light 13h 54m
Length of Day
12h 59m
Waning Crescent, 3% of the Moon is Illuminated
Apr 8
Waning Crescent
Apr 10
New
Apr 18
First Quarter
Apr 25
Full
May 2
Last Quarter

Hourly Weather History & Observations

Time (CDT) Temp. Dew Point Humidity Pressure Visibility Wind Dir Wind Speed Gust Speed Precip Events Conditions
12:07 AM 55.4 °F 53.6 °F 94% 29.75 in 4.0 mi SSW 4.6 mph - 0.04 in Rain , Thunderstorm Rain
12:22 AM 55.4 °F 53.6 °F 94% 29.75 in 4.0 mi South 5.8 mph - 0.08 in Rain Light Rain
12:48 AM 55.4 °F 53.6 °F 94% 29.72 in 5.0 mi East 5.8 mph - 0.11 in Rain , Thunderstorm Light Rain
12:55 AM 55.0 °F 54.0 °F 96% 29.71 in 4.0 mi ESE 6.9 mph - 0.13 in Rain , Thunderstorm Rain
1:00 AM 55.4 °F 53.6 °F 94% 29.70 in 2.5 mi East 8.1 mph - 0.02 in Rain Rain
1:23 AM 55.4 °F 53.6 °F 94% 29.67 in 3.0 mi East 8.1 mph - 0.12 in Rain Rain
1:55 AM 55.0 °F 55.0 °F 100% 29.65 in 3.0 mi ESE 10.4 mph - 0.20 in Rain Rain
1:58 AM 55.4 °F 55.4 °F 100% 29.64 in 2.0 mi ESE 10.4 mph - 0.02 in Rain Heavy Rain
2:06 AM 55.4 °F 55.4 °F 100% 29.62 in 3.0 mi South 11.5 mph - 0.08 in Rain Light Rain
2:11 AM 55.4 °F 55.4 °F 100% 29.64 in 5.0 mi South 12.7 mph 17.3 mph 0.08 in Rain Light Rain
2:33 AM 55.4 °F 55.4 °F 100% 29.61 in 9.0 mi South 12.7 mph - 0.08 in   Overcast
2:44 AM 55.4 °F 55.4 °F 100% 29.63 in 10.0 mi SSW 15.0 mph - 0.08 in   Overcast
2:55 AM 57.0 °F 55.9 °F 96% 29.64 in 10.0 mi WSW 12.7 mph 28.8 mph 0.08 in   Overcast
3:28 AM 55.4 °F 53.6 °F 94% 29.64 in 10.0 mi WSW 10.4 mph 17.3 mph N/A   Overcast
3:30 AM 55.4 °F 53.6 °F 94% 29.64 in 10.0 mi WSW 8.1 mph 16.1 mph N/A   Overcast
3:37 AM 55.4 °F 53.6 °F 94% 29.64 in 10.0 mi WSW 11.5 mph 16.1 mph N/A   Overcast
3:55 AM 55.0 °F 54.0 °F 96% 29.65 in 10.0 mi SW 11.5 mph - N/A   Overcast
4:03 AM 55.4 °F 53.6 °F 94% 29.65 in 10.0 mi SW 10.4 mph - N/A   Overcast
4:14 AM 55.4 °F 53.6 °F 94% 29.65 in 10.0 mi SW 10.4 mph - N/A   Overcast
4:47 AM 53.6 °F 51.8 °F 94% 29.64 in 10.0 mi SW 10.4 mph - N/A   Scattered Clouds
4:55 AM 54.0 °F 52.0 °F 93% 29.64 in 10.0 mi SW 10.4 mph - N/A   Partly Cloudy
5:19 AM 53.6 °F 51.8 °F 94% 29.66 in 10.0 mi SW 9.2 mph - N/A   Mostly Cloudy
5:55 AM 53.1 °F 51.1 °F 93% 29.67 in 10.0 mi WSW 9.2 mph - N/A   Scattered Clouds
6:55 AM 52.0 °F 50.0 °F 93% 29.70 in 9.0 mi WSW 5.8 mph - N/A   Clear
7:39 AM 53.6 °F 51.8 °F 94% 29.73 in 10.0 mi West 3.5 mph - N/A   Overcast
7:55 AM 54.0 °F 52.0 °F 93% 29.74 in 10.0 mi Calm Calm - N/A   Mostly Cloudy
8:29 AM 55.4 °F 51.8 °F 88% 29.75 in 10.0 mi Calm Calm - N/A   Mostly Cloudy
8:55 AM 55.9 °F 53.1 °F 90% 29.76 in 10.0 mi Calm Calm - N/A   Overcast
9:36 AM 57.2 °F 53.6 °F 88% 29.77 in 10.0 mi Calm Calm - N/A   Overcast
9:55 AM 57.9 °F 55.0 °F 90% 29.77 in 10.0 mi Calm Calm - N/A   Overcast
10:55 AM 60.1 °F 57.0 °F 90% 29.79 in 10.0 mi Calm Calm - 0.00 in   Overcast
11:47 AM 62.6 °F 57.2 °F 82% 29.78 in 10.0 mi ESE 4.6 mph - N/A   Mostly Cloudy
11:55 AM 64.0 °F 59.0 °F 84% 29.78 in 10.0 mi SE 6.9 mph - N/A   Mostly Cloudy
12:13 PM 64.4 °F 59.0 °F 83% 29.79 in 10.0 mi Calm Calm - N/A   Mostly Cloudy
12:55 PM 66.9 °F 59.0 °F 76% 29.77 in 10.0 mi West 8.1 mph - N/A   Overcast
1:50 PM 66.2 °F 59.0 °F 78% 29.77 in 10.0 mi South 9.2 mph - N/A   Overcast
1:55 PM 66.9 °F 59.0 °F 76% 29.77 in 10.0 mi South 9.2 mph - N/A   Overcast
2:55 PM 70.0 °F 59.0 °F 68% 29.76 in 10.0 mi South 8.1 mph - N/A   Mostly Cloudy
3:20 PM 69.8 °F 57.2 °F 64% 29.76 in 10.0 mi South 8.1 mph - N/A   Overcast
3:55 PM 69.1 °F 60.1 °F 73% 29.76 in 10.0 mi South 9.2 mph - N/A   Scattered Clouds
4:55 PM 70.0 °F 59.0 °F 68% 29.76 in 10.0 mi SSE 5.8 mph - N/A   Mostly Cloudy
5:34 PM 69.8 °F 60.8 °F 73% 29.75 in 10.0 mi ESE 8.1 mph - N/A   Overcast
5:55 PM 69.1 °F 60.1 °F 73% 29.76 in 9.0 mi ESE 9.2 mph - N/A   Overcast
6:06 PM 69.8 °F 60.8 °F 73% 29.76 in 9.0 mi ESE 6.9 mph - N/A   Overcast
6:55 PM 68.0 °F 60.1 °F 76% 29.76 in 10.0 mi ESE 8.1 mph - N/A   Mostly Cloudy
7:55 PM 64.9 °F 59.0 °F 81% 29.78 in 10.0 mi East 5.8 mph - N/A   Partly Cloudy
8:55 PM 63.0 °F 59.0 °F 87% 29.80 in 10.0 mi ENE 5.8 mph - N/A   Clear
9:55 PM 63.0 °F 59.0 °F 87% 29.81 in 9.0 mi East 8.1 mph - N/A   Mostly Cloudy
10:55 PM 63.0 °F 59.0 °F 87% 29.81 in 10.0 mi East 8.1 mph - N/A   Overcast
11:55 PM 63.0 °F 59.0 °F 87% 29.79 in 10.0 mi East 8.1 mph - N/A   Overcast